Volver al catálogo

CZ-6A DEB

ActivoSSO
NORAD 56677·DEBRIS·🇨🇳 China

Lanzado Nov 11, 2022 desde Taiyuan Satellite Launch Center

Loading…

Próximos Pases (próximas 24 horas)

TLE

ActualizadoSource: Space-Track

Época: Sep 14, 2026, 07:08 UTC

1 56677U 22151AHD 26257.29750937  .00000342  00000-0  11964-3 0  9999
2 56677  98.6135 281.4317 0161943 149.5656 211.5052 14.34355194177674

Sigue CZ-6A DEB en tiempo real con AllMySat

Download on the App Store